Weather History for KCCU - December, 2013

Change the Weather History Date:

Friday, December 6, 2013

  Actual Average (KLXV) Record (KLXV)
Temperature  
Mean Temperature -1 °F -  
Max Temperature 3 °F 30 °F 47 °F (1984)
Min Temperature -5 °F 5 °F -17 °F (2013)
Degree Days  
Heating Degree Days 66 48  
Month to date heating degree days 282  
Since 1 July heating degree days 3687  
Cooling Degree Days 0 0  
Month to date cooling degree days 0  
Year to date cooling degree days 0  
Moisture  
Dew Point -13 °F    
Average Humidity 58    
Maximum Humidity 66    
Minimum Humidity 51    
Precipitation  
Precipitation 0.00 in 0.02 in 0.25 in (2007)
Month to date precipitation 0.15  
Year to date precipitation 11.85  
Sea Level Pressure  
Sea Level Pressure 29.65 in    
Wind  
Wind Speed 14 mph (WSW)    
Max Wind Speed 23 mph    
Max Gust Speed 38 mph    
Visibility 6 miles    
Events Snow    
T = Trace of Precipitation, MM = Missing Value Source: NWS Daily Summary

Daily Weather History Graph

Daily Weather History Graph

Search for Another Location

Airport or City:

Trip Planner

Search our weather history database for the weather conditions in past years. The results will help you decide how hot, cold, wet, or windy it might be!

Date:

Astronomy

Dec. 06, 2013 Rise Set
Actual Time 7:10 AM MST 4:40 PM MST
Civil Twilight 6:40 AM MST 5:10 PM MST
Nautical Twilight 6:07 AM MST 5:44 PM MST
Astronomical Twilight 5:34 AM MST 6:16 PM MST
Moon 10:18 AM MST (12/6) 9:14 PM MST (12/6)
Length of Visible Light 10h 29m
Length of Day
9h 29m
Waxing Crescent, 20% of the Moon is Illuminated
Dec 6
Waxing Crescent
Dec 9
First Quarter
Dec 17
Full
Dec 25
Last Quarter
Jan 1
New

Hourly Weather History & Observations

Time (MST) Temp. Windchill Dew Point Humidity Pressure Visibility Wind Dir Wind Speed Gust Speed Precip Events Conditions
12:15 AM -4.0 °F -24.5 °F -14.8 °F 60% 29.55 in 10.0 mi WSW 15.0 mph 21.9 mph N/A   Clear
12:35 AM -4.0 °F -20.2 °F -14.8 °F 60% 29.54 in 10.0 mi SW 9.2 mph 23.0 mph N/A   Scattered Clouds
12:55 AM -4.0 °F -23.7 °F -14.8 °F 60% 29.54 in 10.0 mi WSW 13.8 mph 21.9 mph N/A   Mostly Cloudy
1:15 AM -4.0 °F -20.2 °F -14.8 °F 60% 29.54 in 10.0 mi WSW 9.2 mph 20.7 mph N/A   Mostly Cloudy
1:35 AM -4.0 °F -24.5 °F -14.8 °F 60% 29.54 in 10.0 mi SW 15.0 mph 23.0 mph N/A   Scattered Clouds
1:55 AM -4.0 °F -23.7 °F -14.8 °F 60% 29.55 in 10.0 mi SW 13.8 mph 21.9 mph N/A   Clear
2:15 AM -4.0 °F -23.0 °F -16.6 °F 55% 29.55 in 10.0 mi SW 12.7 mph 23.0 mph N/A   Scattered Clouds
2:35 AM -4.0 °F -23.7 °F -16.6 °F 55% 29.55 in 10.0 mi WSW 13.8 mph 20.7 mph N/A   Clear
2:55 AM -4.0 °F -19.0 °F -14.8 °F 60% 29.55 in 10.0 mi WSW 8.1 mph 18.4 mph N/A   Scattered Clouds
3:15 AM -4.0 °F -21.2 °F -14.8 °F 60% 29.55 in 10.0 mi WSW 10.4 mph 20.7 mph N/A   Scattered Clouds
3:35 AM -4.0 °F -21.2 °F -14.8 °F 60% 29.55 in 10.0 mi WSW 10.4 mph 16.1 mph N/A   Mostly Cloudy
3:55 AM -4.0 °F -21.2 °F -14.8 °F 60% 29.55 in 10.0 mi WSW 10.4 mph 19.6 mph N/A   Overcast
4:15 AM -4.0 °F -23.7 °F -14.8 °F 60% 29.55 in 10.0 mi SW 13.8 mph 19.6 mph N/A   Overcast
4:35 AM -4.0 °F -23.7 °F -14.8 °F 60% 29.55 in 10.0 mi WSW 13.8 mph 20.7 mph N/A   Overcast
4:55 AM -4.0 °F -25.2 °F -14.8 °F 60% 29.55 in 10.0 mi SW 16.1 mph 23.0 mph N/A   Overcast
5:15 AM -4.0 °F -23.0 °F -14.8 °F 60% 29.55 in 10.0 mi SW 12.7 mph 24.2 mph N/A   Overcast
5:35 AM -4.0 °F -25.2 °F -14.8 °F 60% 29.55 in 10.0 mi WSW 16.1 mph 23.0 mph N/A   Overcast
5:55 AM -4.0 °F -23.0 °F -14.8 °F 60% 29.56 in 10.0 mi SW 12.7 mph 20.7 mph N/A   Mostly Cloudy
6:15 AM -4.0 °F -21.2 °F -14.8 °F 60% 29.56 in 10.0 mi SW 10.4 mph 16.1 mph N/A   Overcast
6:35 AM -4.0 °F -23.0 °F -14.8 °F 60% 29.57 in 10.0 mi WSW 12.7 mph - N/A   Overcast
6:55 AM -4.0 °F -24.5 °F -14.8 °F 60% 29.58 in 10.0 mi WSW 15.0 mph 23.0 mph N/A   Overcast
7:15 AM -4.0 °F -23.7 °F -14.8 °F 60% 29.58 in 10.0 mi SW 13.8 mph 20.7 mph N/A   Overcast
7:35 AM -4.0 °F -20.2 °F -14.8 °F 60% 29.58 in 5.0 mi SW 9.2 mph 19.6 mph N/A   Haze
7:55 AM -4.0 °F -20.2 °F -16.6 °F 55% 29.59 in 10.0 mi WSW 9.2 mph 17.3 mph N/A   Scattered Clouds
8:15 AM -5.8 °F -22.4 °F -16.6 °F 60% 29.60 in 10.0 mi SW 9.2 mph 17.3 mph N/A   Scattered Clouds
8:35 AM -4.0 °F -21.2 °F -16.6 °F 55% 29.61 in 10.0 mi WSW 10.4 mph 16.1 mph N/A   Mostly Cloudy
8:55 AM -4.0 °F -20.2 °F -14.8 °F 60% 29.63 in 5.0 mi SW 9.2 mph - N/A   Haze
9:15 AM -4.0 °F -20.2 °F -14.8 °F 60% 29.63 in 5.0 mi WSW 9.2 mph - N/A   Haze
9:35 AM -4.0 °F -21.2 °F -14.8 °F 60% 29.63 in 10.0 mi WSW 10.4 mph - N/A   Overcast
9:55 AM -0.4 °F -15.7 °F -13.0 °F 55% 29.65 in 10.0 mi SW 9.2 mph 17.3 mph N/A   Overcast
10:15 AM -0.4 °F -19.9 °F -13.0 °F 55% 29.65 in 5.0 mi WSW 15.0 mph 24.2 mph N/A   Haze
10:35 AM -0.4 °F -20.5 °F -14.8 °F 51% 29.66 in 5.0 mi WSW 16.1 mph 26.5 mph N/A   Haze
10:55 AM -0.4 °F -18.4 °F -13.0 °F 55% 29.65 in 2.0 mi WSW 12.7 mph 35.7 mph N/A   Haze
11:15 AM -0.4 °F -21.2 °F -13.0 °F 55% 29.65 in 1.8 mi WSW 17.3 mph 33.4 mph N/A   Haze
11:35 AM -0.4 °F -18.4 °F -13.0 °F 55% 29.65 in 1.2 mi WSW 12.7 mph 23.0 mph N/A   Haze
11:55 AM -0.4 °F -21.2 °F -13.0 °F 55% 29.65 in 1.2 mi WSW 17.3 mph 28.8 mph N/A   Haze
12:15 PM -0.4 °F -21.2 °F -11.2 °F 60% 29.65 in 1.8 mi WSW 17.3 mph 28.8 mph N/A   Haze
12:35 PM -0.4 °F -21.2 °F -11.2 °F 60% 29.65 in 2.0 mi WSW 17.3 mph 25.3 mph N/A   Haze
12:55 PM 1.4 °F -18.2 °F -11.2 °F 56% 29.65 in 2.5 mi West 16.1 mph 27.6 mph N/A   Haze
1:15 PM 1.4 °F -16.9 °F -11.2 °F 56% 29.66 in 2.0 mi WSW 13.8 mph 25.3 mph N/A   Haze
1:35 PM 1.4 °F -18.8 °F -11.2 °F 56% 29.65 in 0.8 mi WSW 17.3 mph 38.0 mph N/A Snow Light Snow
1:55 PM 1.4 °F -21.4 °F -9.4 °F 61% 29.66 in 0.5 mi WSW 23.0 mph 35.7 mph N/A Snow Light Snow
2:15 PM 1.4 °F -18.2 °F -9.4 °F 61% 29.66 in 1.0 mi WSW 16.1 mph 28.8 mph N/A   Haze
2:35 PM 1.4 °F -18.2 °F -7.6 °F 66% 29.66 in 0.8 mi WSW 16.1 mph 26.5 mph N/A Snow Light Snow
2:55 PM 1.4 °F -20.5 °F -7.6 °F 66% 29.67 in 0.8 mi West 20.7 mph 25.3 mph N/A Snow Light Snow
3:15 PM 1.4 °F -19.4 °F -7.6 °F 66% 29.68 in 0.8 mi West 18.4 mph 33.4 mph N/A   Haze
3:35 PM 1.4 °F -19.4 °F -9.4 °F 61% 29.68 in 1.2 mi West 18.4 mph 31.1 mph N/A   Haze
3:55 PM -0.4 °F -22.3 °F -9.4 °F 66% 29.69 in 2.0 mi WSW 19.6 mph 23.0 mph N/A   Haze
4:15 PM -0.4 °F -21.2 °F -11.2 °F 60% 29.69 in 3.0 mi WSW 17.3 mph 23.0 mph N/A   Haze
4:35 PM -0.4 °F -21.2 °F -13.0 °F 55% 29.70 in 1.0 mi SW 17.3 mph 28.8 mph N/A Snow Light Snow
4:55 PM -0.4 °F -17.6 °F -13.0 °F 55% 29.70 in 4.0 mi SW 11.5 mph 24.2 mph N/A   Haze
5:15 PM -0.4 °F -18.4 °F -13.0 °F 55% 29.70 in 4.0 mi SW 12.7 mph 26.5 mph N/A   Haze
5:35 PM -0.4 °F -20.5 °F -13.0 °F 55% 29.70 in 4.0 mi SW 16.1 mph 28.8 mph N/A Snow Light Snow
5:55 PM -0.4 °F -23.3 °F -13.0 °F 55% 29.71 in 4.0 mi WSW 21.9 mph 29.9 mph N/A   Haze
6:15 PM -0.4 °F -21.2 °F -13.0 °F 55% 29.72 in 5.0 mi WSW 17.3 mph 26.5 mph N/A   Haze
6:35 PM -0.4 °F -22.8 °F -13.0 °F 55% 29.73 in 7.0 mi WSW 20.7 mph 27.6 mph N/A   Overcast
6:55 PM -0.4 °F -21.7 °F -13.0 °F 55% 29.74 in 7.0 mi SW 18.4 mph 28.8 mph N/A   Mostly Cloudy
7:15 PM -0.4 °F -19.9 °F -13.0 °F 55% 29.74 in 10.0 mi SW 15.0 mph 27.6 mph N/A   Scattered Clouds
7:35 PM -0.4 °F -19.9 °F -13.0 °F 55% 29.74 in 10.0 mi SW 15.0 mph 26.5 mph N/A   Scattered Clouds
7:55 PM -0.4 °F -21.2 °F -13.0 °F 55% 29.75 in 7.0 mi WSW 17.3 mph 28.8 mph N/A   Mostly Cloudy
8:15 PM -0.4 °F -22.3 °F -13.0 °F 55% 29.75 in 7.0 mi SW 19.6 mph 33.4 mph N/A   Overcast
8:35 PM -0.4 °F -18.4 °F -13.0 °F 55% 29.75 in 7.0 mi SW 12.7 mph 24.2 mph N/A   Mostly Cloudy
8:55 PM 1.4 °F -19.9 °F -11.2 °F 56% 29.76 in 3.0 mi SW 19.6 mph 26.5 mph N/A   Haze
9:15 PM 1.4 °F -19.9 °F -9.4 °F 61% 29.76 in 5.0 mi SW 19.6 mph 25.3 mph N/A   Haze
9:35 PM 1.4 °F -19.4 °F -9.4 °F 61% 29.77 in 2.5 mi SW 18.4 mph 28.8 mph N/A Snow Light Snow
9:55 PM 1.4 °F -19.4 °F -9.4 °F 61% 29.77 in 2.0 mi SW 18.4 mph 29.9 mph N/A Snow Light Snow
10:15 PM 1.4 °F -19.9 °F -9.4 °F 61% 29.77 in 2.5 mi SW 19.6 mph 33.4 mph N/A Snow Light Snow
10:35 PM 1.4 °F -19.4 °F -9.4 °F 61% 29.77 in 5.0 mi WSW 18.4 mph 33.4 mph N/A   Haze
10:55 PM 1.4 °F -21.0 °F -9.4 °F 61% 29.77 in 5.0 mi WSW 21.9 mph 35.7 mph N/A   Haze
11:15 PM 3.2 °F -16.5 °F -9.4 °F 56% 29.76 in 4.0 mi SW 17.3 mph 28.8 mph N/A   Haze
11:35 PM 3.2 °F -15.3 °F -9.4 °F 56% 29.76 in 4.0 mi WSW 15.0 mph 27.6 mph N/A   Haze
11:55 PM 3.2 °F -13.9 °F -9.4 °F 56% 29.77 in 7.0 mi SW 12.7 mph 20.7 mph N/A   Mostly Cloudy